Hauptseite
METAR-TAF:

METAR-TAF

Flughäfen :

RAF

Holbeach, England

Breite: 52-52N, Länge: 000-09E, Höhe: 3 m

Beobachtung

Neuester Wetterbericht von vor 4 Stunden und 47 Minuten, um 14:50 UTC
Wind 13 kt aus Südwest
Temperatur 26°C
Luftfeuchtigkeit 61%
Luftdruck 1017 hPa
Sichtweite 10 km oder mehr
Durchbrochene Bewölkung in der Höhe von 3500 ft

METAR: EGYH 061450Z 22013KT 9999 BKN035 26/18 Q1017 RMK BLU

Zeit: 20:37 (19:37 UTC)


TAF: fehlend

Wetterbeobachtungen und Prognosen von mehr als 4000 Flughäfen (METAR und TAF Bericht).

Die verfügbaren Stationen werden durch gelbe und rote Markierungen auf der Karte dargestellt.

Führen Sie die Maus auf sie, um den Namen der Station zu sehen.

Darauf klicken, um die Beobachtung von Wetterbeobachtungen und Prognosen zu sehen.

Um die Karte zu ändern : klicken Sie auf den grünen Tasten mit einem schwarzen Kreuz Zum Vergrößern, auf den grünen Button mit einem Gedankenstrich zu verkleinern, oder auf die grünen Pfeile für benachbarte Karten.


METAR-TAF: